Location: Whitehorse
(60.7170°N, 135.0500°W)
Time: 19:21:14
(UTC-08:00)

Envisat - Pass Details

Date: 25 October 2019
Orbit: 764 x 766 km, 98.1° (Epoch: 12 November)

Event Time Altitude Azimuth Distance (km) Brightness Sun altitude
Rises 20:48:48 0° 196° (SSW) 3,226 6.3 -18.6°
Reaches altitude 10° 20:51:22 10° 207° (SSW) 2,304 5.7 -18.9°
Maximum altitude 20:55:49 30° 268° (W) 1,345 5.0 -19.5°
Drops below altitude 10° 21:00:19 10° 330° (NNW) 2,317 6.0 -20.0°
Sets 21:02:54 0° 341° (NNW) 3,247 6.7 -20.3°
